Location: Bremen
(53.0833°N, 8.8000°E)
Time: 21:09:45
(UTC+01:00)

BlueWalker 3 - Visible Passes

Search period start: 15 January 2026 00:00
Search period end: 25 January 2026 00:00
Orbit: 451 x 463 km, 53.2° (Epoch: 15 January)

Date Brightness Start Highest point End Pass type
(mag) Time Alt. Az. Time Alt. Az. Time Alt. Az.
21 Jan 4.7 19:59:34 10° SW 19:59:54 12° SW 19:59:54 12° SW visible
22 Jan 3.5 19:24:25 10° SW 19:26:15 24° SSW 19:26:15 24° SSW visible
23 Jan 2.9 18:49:17 10° SSW 18:52:22 28° SSE 18:52:32 28° SE visible
23 Jan 4.9 20:26:00 10° WSW 20:26:17 12° WSW 20:26:17 12° WSW visible
24 Jan 3.2 18:14:12 10° SSW 18:17:06 24° SE 18:18:45 17° ESE visible
24 Jan 3.6 19:50:39 10° WSW 19:52:30 28° WSW 19:52:30 28° WSW visible
